User: anonymous   Login
Location: Caltech
(34.1382°N, 118.1253°W)
Time: 23:51:12
(UTC-07:00)
Language:

Cosmos 1758 Rocket - Orbit

View from above orbital plane
View from above orbital plane
View from above satellite
View from above satellite

Ground track
Ground track

The orbit data is extracted from the following two-line orbital elements,

1 16792U 86046B   16145.85393789  .00000130  00000-0  12853-4 0  9995
2 16792  82.4840 207.7817 0025530 129.5301 352.4113 14.83067349617324
Epoch (UTC): 24 May 2016 20:29:40
Eccentricity: 0.0025530
inclination: 82.4840°
perigee height: 602 km
apogee height: 637 km
right ascension of ascending node: 207.7817°
argument of perigee: 129.5301°
revolutions per day: 14.83067349
mean anomaly at epoch: 352.4113°
orbit number at epoch: 61732

The dashed part of the orbit path shows where the satellite is in the earth's shadow,  

DLR